Time,TemperatureF,DewpointF,PressureIn,WindDirection,WindDirectionDegrees,WindSpeedMPH,WindSpeedGustMPH,Humidity,HourlyPrecipIn,Conditions,Clouds,dailyrainin,SolarRadiationWatts/m^2,SoftwareType,DateUTC
2013-02-25 00:00:00,21.0,20.0,-100.00,SW,225,0.0,-999.0,95,-99.99,,,-99.99,0.000000,,2013-02-25 05:00:00,
2013-02-25 00:42:00,21.0,20.0,-100.00,SW,225,0.0,-999.0,95,-99.99,,,-99.99,0.000000,,2013-02-25 05:42:00,
2013-02-25 00:52:00,21.0,20.0,-100.00,SW,225,0.0,-999.0,95,-99.99,,,-99.99,0.000000,,2013-02-25 05:52:00,
2013-02-25 01:00:00,20.0,20.0,-100.00,ENE,67,0.0,-999.0,98,-99.99,,,-99.99,0.000000,,2013-02-25 06:00:00,
2013-02-25 01:42:00,20.0,20.0,-100.00,ENE,67,0.0,-999.0,98,-99.99,,,-99.99,0.000000,,2013-02-25 06:42:00,
2013-02-25 01:52:00,20.0,20.0,-100.00,ENE,67,0.0,-999.0,98,-99.99,,,-99.99,0.000000,,2013-02-25 06:52:00,
2013-02-25 02:00:00,20.0,19.0,-100.00,South,180,0.0,-999.0,98,-99.99,,,-99.99,0.000000,,2013-02-25 07:00:00,
2013-02-25 02:42:00,20.0,19.0,-100.00,South,180,0.0,-999.0,98,-99.99,,,-99.99,0.000000,,2013-02-25 07:42:00,
2013-02-25 02:52:00,20.0,19.0,-100.00,South,180,0.0,-999.0,98,-99.99,,,-99.99,0.000000,,2013-02-25 07:52:00,
2013-02-25 03:00:00,19.0,19.0,-100.00,SE,135,0.0,-999.0,98,-99.99,,,-99.99,0.000000,,2013-02-25 08:00:00,
2013-02-25 03:42:00,19.0,19.0,-100.00,SE,135,0.0,-999.0,98,-99.99,,,-99.99,0.000000,,2013-02-25 08:42:00,
2013-02-25 03:52:00,19.0,19.0,-100.00,SE,135,0.0,-999.0,98,-99.99,,,-99.99,0.000000,,2013-02-25 08:52:00,
2013-02-25 04:00:00,19.0,18.0,-100.00,ENE,67,0.0,-999.0,98,-99.99,,,-99.99,0.000000,,2013-02-25 09:00:00,
2013-02-25 04:42:00,19.0,18.0,-100.00,ENE,67,0.0,-999.0,98,-99.99,,,-99.99,0.000000,,2013-02-25 09:42:00,
2013-02-25 04:52:00,19.0,18.0,-100.00,ENE,67,0.0,-999.0,98,-99.99,,,-99.99,0.000000,,2013-02-25 09:52:00,
2013-02-25 05:00:00,17.0,17.0,-100.00,East,90,0.0,-999.0,97,-99.99,,,-99.99,0.000000,,2013-02-25 10:00:00,
2013-02-25 05:42:00,17.0,17.0,-100.00,East,90,0.0,-999.0,97,-99.99,,,-99.99,0.000000,,2013-02-25 10:42:00,
2013-02-25 05:52:00,17.0,17.0,-100.00,East,90,0.0,-999.0,97,-99.99,,,-99.99,0.000000,,2013-02-25 10:52:00,
2013-02-25 06:00:00,17.0,16.0,-100.00,East,90,0.0,-999.0,96,-99.99,,,-99.99,0.000000,,2013-02-25 11:00:00,
2013-02-25 06:42:00,17.0,16.0,-100.00,East,90,0.0,-999.0,96,-99.99,,,-99.99,0.000000,,2013-02-25 11:42:00,
2013-02-25 06:52:00,17.0,16.0,-100.00,East,90,0.0,-999.0,96,-99.99,,,-99.99,0.000000,,2013-02-25 11:52:00,
2013-02-25 07:00:00,16.0,16.0,-100.00,East,90,0.0,-999.0,96,-99.99,,,-99.99,0.000000,,2013-02-25 12:00:00,
2013-02-25 07:42:00,16.0,16.0,-100.00,East,90,0.0,-999.0,96,-99.99,,,-99.99,0.000000,,2013-02-25 12:42:00,
2013-02-25 07:56:00,16.0,16.0,-100.00,East,90,0.0,-999.0,96,-99.99,,,-99.99,0.000000,,2013-02-25 12:56:00,
2013-02-25 08:00:00,16.0,16.0,-100.00,ENE,67,0.0,-999.0,96,-99.99,,,-99.99,15.080000,,2013-02-25 13:00:00,
2013-02-25 08:42:00,16.0,16.0,-100.00,ENE,67,0.0,-999.0,96,-99.99,,,-99.99,15.080000,,2013-02-25 13:42:00,
2013-02-25 08:52:00,16.0,16.0,-100.00,ENE,67,0.0,-999.0,96,-99.99,,,-99.99,15.080000,,2013-02-25 13:52:00,
2013-02-25 09:00:00,21.0,20.0,-100.00,ENE,67,1.0,-999.0,96,-99.99,,,-99.99,122.959999,,2013-02-25 14:00:00,
2013-02-25 09:42:00,21.0,20.0,-100.00,ENE,67,1.0,-999.0,96,-99.99,,,-99.99,122.959999,,2013-02-25 14:42:00,
2013-02-25 09:52:00,21.0,20.0,-100.00,ENE,67,1.0,-999.0,96,-99.99,,,-99.99,122.959999,,2013-02-25 14:52:00,
2013-02-25 10:00:00,26.0,24.0,-100.00,ENE,67,1.0,-999.0,93,-99.99,,,-99.99,284.200012,,2013-02-25 15:00:00,
2013-02-25 10:42:00,26.0,24.0,-100.00,ENE,67,1.0,-999.0,93,-99.99,,,-99.99,284.200012,,2013-02-25 15:42:00,
2013-02-25 10:52:00,26.0,24.0,-100.00,ENE,67,1.0,-999.0,93,-99.99,,,-99.99,284.200012,,2013-02-25 15:52:00,
2013-02-25 11:00:00,31.0,26.0,-100.00,ENE,67,3.0,-999.0,81,-99.99,,,-99.99,423.399994,,2013-02-25 16:00:00,
2013-02-25 11:42:00,31.0,26.0,-100.00,ENE,67,3.0,-999.0,81,-99.99,,,-99.99,423.399994,,2013-02-25 16:42:00,
2013-02-25 11:52:00,31.0,26.0,-100.00,ENE,67,3.0,-999.0,81,-99.99,,,-99.99,423.399994,,2013-02-25 16:52:00,
2013-02-25 12:00:00,35.0,26.0,-100.00,ESE,112,4.0,-999.0,67,-99.99,,,-99.99,537.080017,,2013-02-25 17:00:00,
2013-02-25 12:42:00,35.0,26.0,-100.00,ESE,112,4.0,-999.0,67,-99.99,,,-99.99,537.080017,,2013-02-25 17:42:00,
2013-02-25 12:52:00,35.0,26.0,-100.00,ESE,112,4.0,-999.0,67,-99.99,,,-99.99,537.080017,,2013-02-25 17:52:00,
2013-02-25 13:00:00,37.0,25.0,-100.00,ESE,112,5.0,-999.0,61,-99.99,,,-99.99,585.799988,,2013-02-25 18:00:00,
2013-02-25 13:42:00,37.0,25.0,-100.00,ESE,112,5.0,-999.0,61,-99.99,,,-99.99,585.799988,,2013-02-25 18:42:00,
2013-02-25 13:52:00,37.0,25.0,-100.00,ESE,112,5.0,-999.0,61,-99.99,,,-99.99,585.799988,,2013-02-25 18:52:00,
2013-02-25 14:00:00,38.0,25.0,-100.00,ESE,112,5.0,-999.0,59,-99.99,,,-99.99,580.000000,,2013-02-25 19:00:00,
2013-02-25 14:42:00,38.0,25.0,-100.00,ESE,112,5.0,-999.0,59,-99.99,,,-99.99,580.000000,,2013-02-25 19:42:00,
2013-02-25 14:52:00,38.0,25.0,-100.00,ESE,112,5.0,-999.0,59,-99.99,,,-99.99,580.000000,,2013-02-25 19:52:00,
2013-02-25 15:00:00,39.0,26.0,-100.00,East,90,3.0,-999.0,57,-99.99,,,-99.99,520.840027,,2013-02-25 20:00:00,
2013-02-25 15:42:00,39.0,26.0,-100.00,East,90,3.0,-999.0,57,-99.99,,,-99.99,520.840027,,2013-02-25 20:42:00,
2013-02-25 15:52:00,39.0,26.0,-100.00,East,90,3.0,-999.0,57,-99.99,,,-99.99,520.840027,,2013-02-25 20:52:00,
2013-02-25 16:00:00,39.0,26.0,-100.00,East,90,5.0,-999.0,58,-99.99,,,-99.99,414.119995,,2013-02-25 21:00:00,
2013-02-25 16:42:00,39.0,26.0,-100.00,East,90,5.0,-999.0,58,-99.99,,,-99.99,414.119995,,2013-02-25 21:42:00,
2013-02-25 16:52:00,39.0,26.0,-100.00,East,90,5.0,-999.0,58,-99.99,,,-99.99,414.119995,,2013-02-25 21:52:00,
2013-02-25 17:00:00,40.0,27.0,-100.00,East,90,5.0,-999.0,60,-99.99,,,-99.99,266.799988,,2013-02-25 22:00:00,
2013-02-25 17:42:00,40.0,27.0,-100.00,East,90,5.0,-999.0,60,-99.99,,,-99.99,266.799988,,2013-02-25 22:42:00,
2013-02-25 17:52:00,40.0,27.0,-100.00,East,90,5.0,-999.0,60,-99.99,,,-99.99,266.799988,,2013-02-25 22:52:00,
2013-02-25 18:00:00,37.0,28.0,-100.00,East,90,5.0,-999.0,69,-99.99,,,-99.99,58.000000,,2013-02-25 23:00:00,
2013-02-25 18:42:00,37.0,28.0,-100.00,East,90,5.0,-999.0,69,-99.99,,,-99.99,58.000000,,2013-02-25 23:42:00,
2013-02-25 18:52:00,37.0,28.0,-100.00,East,90,5.0,-999.0,69,-99.99,,,-99.99,58.000000,,2013-02-25 23:52:00,
2013-02-25 19:00:00,33.0,28.0,-100.00,ENE,67,3.0,-999.0,80,-99.99,,,-99.99,4.640000,,2013-02-26 00:00:00,
2013-02-25 19:42:00,33.0,28.0,-100.00,ENE,67,3.0,-999.0,80,-99.99,,,-99.99,4.640000,,2013-02-26 00:42:00,
2013-02-25 19:52:00,33.0,28.0,-100.00,ENE,67,3.0,-999.0,80,-99.99,,,-99.99,4.640000,,2013-02-26 00:52:00,
2013-02-25 20:00:00,32.0,27.0,-100.00,ENE,67,5.0,-999.0,80,-99.99,,,-99.99,0.000000,,2013-02-26 01:00:00,
2013-02-25 20:42:00,32.0,27.0,-100.00,ENE,67,5.0,-999.0,80,-99.99,,,-99.99,0.000000,,2013-02-26 01:42:00,
2013-02-25 20:52:00,32.0,27.0,-100.00,ENE,67,5.0,-999.0,80,-99.99,,,-99.99,0.000000,,2013-02-26 01:52:00,
2013-02-25 21:00:00,33.0,27.0,-100.00,ENE,67,6.0,-999.0,79,-99.99,,,-99.99,0.000000,,2013-02-26 02:00:00,
2013-02-25 21:42:00,33.0,27.0,-100.00,ENE,67,6.0,-999.0,79,-99.99,,,-99.99,0.000000,,2013-02-26 02:42:00,
2013-02-25 21:52:00,33.0,27.0,-100.00,ENE,67,6.0,-999.0,79,-99.99,,,-99.99,0.000000,,2013-02-26 02:52:00,
2013-02-25 22:00:00,32.0,27.0,-100.00,ENE,67,7.0,-999.0,78,-99.99,,,-99.99,0.000000,,2013-02-26 03:00:00,
2013-02-25 22:42:00,32.0,27.0,-100.00,ENE,67,7.0,-999.0,78,-99.99,,,-99.99,0.000000,,2013-02-26 03:42:00,
2013-02-25 22:52:00,32.0,27.0,-100.00,ENE,67,7.0,-999.0,78,-99.99,,,-99.99,0.000000,,2013-02-26 03:52:00,
2013-02-25 23:00:00,32.0,27.0,-100.00,East,90,7.0,-999.0,79,-99.99,,,-99.99,0.000000,,2013-02-26 04:00:00,
2013-02-25 23:43:00,32.0,27.0,-100.00,East,90,7.0,-999.0,79,-99.99,,,-99.99,0.000000,,2013-02-26 04:43:00,
2013-02-25 23:52:00,32.0,27.0,-100.00,East,90,7.0,-999.0,79,-99.99,,,-99.99,0.000000,,2013-02-26 04:52:00,